,,PA_Meas_PMT16A,,PR_Meas_QMR101_102,,RH_Meas_QMH101,,SR_Meas_QMS101,,TA_Meas_QMH101,,GenWind,,GenWind,
time,status,PA,status,PR,status,RH,status,SR,status,TA,status,DirAvg,status,SpdAvg,
2012-08-07, 00:00:04,VALID,919.083,VALID,0,VALID,96.8707,VALID,0,VALID,18.9257,VALID,347,VALID,0,
2012-08-07, 00:01:04,VALID,919.112,VALID,0,VALID,96.8555,VALID,0,VALID,18.8853,VALID,10,VALID,0,
2012-08-07, 00:02:04,VALID,919.117,VALID,0,VALID,96.8784,VALID,0,VALID,18.9062,VALID,10,VALID,0,
2012-08-07, 00:03:04,VALID,919.147,VALID,0,VALID,96.8174,VALID,0.107441,VALID,18.8658,VALID,329,VALID,0,
2012-08-07, 00:04:04,VALID,919.154,VALID,0,VALID,96.8631,VALID,0,VALID,18.8672,VALID,329,VALID,0,
2012-08-07, 00:05:04,VALID,919.146,VALID,0,VALID,96.8555,VALID,0,VALID,18.8658,VALID,329,VALID,0,
2012-08-07, 00:06:04,VALID,919.147,VALID,0,VALID,96.9012,VALID,0,VALID,18.9048,VALID,329,VALID,0,
2012-08-07, 00:07:04,VALID,919.149,VALID,0,VALID,96.886,VALID,0,VALID,18.9257,VALID,329,VALID,0,
2012-08-07, 00:08:04,VALID,919.158,VALID,0,VALID,96.8936,VALID,0,VALID,18.9048,VALID,329,VALID,0,
2012-08-07, 00:09:04,VALID,919.15,VALID,0,VALID,96.9089,VALID,0,VALID,18.9048,VALID,329,VALID,0,
2012-08-07, 00:10:04,VALID,919.171,VALID,0,VALID,96.9089,VALID,0,VALID,18.9048,VALID,329,VALID,0,
2012-08-07, 00:11:04,VALID,919.191,VALID,0,VALID,96.9089,VALID,0,VALID,18.9048,VALID,329,VALID,0,
2012-08-07, 00:12:04,VALID,919.194,VALID,0,VALID,96.9317,VALID,0,VALID,18.9257,VALID,328,VALID,0,
2012-08-07, 00:13:04,VALID,919.208,VALID,0,VALID,96.8555,VALID,0,VALID,18.8853,INVALID,360,VALID,0,
2012-08-07, 00:14:04,VALID,919.226,VALID,0,VALID,96.825,VALID,0,VALID,18.9048,VALID,329,VALID,0,
2012-08-07, 00:15:04,VALID,919.279,VALID,0,VALID,96.8021,VALID,0,VALID,18.9243,VALID,329,VALID,0,
2012-08-07, 00:16:04,VALID,919.262,VALID,0,VALID,96.7793,VALID,0,VALID,18.9452,VALID,329,VALID,0,
2012-08-07, 00:17:04,VALID,919.273,VALID,0,VALID,96.7716,VALID,0,VALID,18.9438,VALID,329,VALID,0,
2012-08-07, 00:18:04,VALID,919.246,VALID,0,VALID,96.7716,VALID,0.107441,VALID,18.9438,VALID,329,VALID,0,
2012-08-07, 00:19:04,VALID,919.295,VALID,0,VALID,96.7716,VALID,0,VALID,18.9438,VALID,329,VALID,0,
2012-08-07, 00:20:04,VALID,919.29,VALID,0,VALID,96.7411,VALID,0,VALID,18.9243,VALID,329,VALID,0,
2012-08-07, 00:21:04,VALID,919.311,VALID,0,VALID,96.6954,VALID,0,VALID,18.9243,VALID,329,VALID,0,
2012-08-07, 00:22:04,VALID,919.365,VALID,0,VALID,96.6802,VALID,0,VALID,18.9048,VALID,329,VALID,0,
2012-08-07, 00:23:04,VALID,919.386,VALID,0,VALID,96.6344,VALID,0,VALID,18.9048,VALID,329,VALID,0,
2012-08-07, 00:24:04,VALID,919.409,VALID,0,VALID,96.6192,VALID,0,VALID,18.9243,VALID,329,VALID,0,
2012-08-07, 00:25:04,VALID,919.457,VALID,0,VALID,96.5811,VALID,0,VALID,18.9467,VALID,329,VALID,0,
2012-08-07, 00:26:04,VALID,919.471,VALID,0,VALID,96.5658,VALID,0,VALID,18.9257,VALID,329,VALID,0,
2012-08-07, 00:27:04,VALID,919.502,VALID,0,VALID,96.5353,VALID,0,VALID,18.9243,VALID,329,VALID,0,
2012-08-07, 00:28:04,VALID,919.45,VALID,0,VALID,96.5506,VALID,0,VALID,18.9438,VALID,329,VALID,0,
2012-08-07, 00:29:04,VALID,919.44,VALID,0,VALID,96.4591,VALID,0,VALID,18.9438,VALID,329,VALID,0,
2012-08-07, 00:30:04,VALID,919.458,VALID,0,VALID,96.36,VALID,0.107441,VALID,18.9048,VALID,329,VALID,0,
2012-08-07, 00:31:04,VALID,919.41,VALID,0,VALID,96.4057,VALID,0.107441,VALID,18.9048,VALID,329,VALID,0,
2012-08-07, 00:32:04,VALID,919.433,VALID,0,VALID,96.3524,VALID,0,VALID,18.9062,VALID,329,VALID,0,
2012-08-07, 00:33:04,VALID,919.383,VALID,0,VALID,96.2075,VALID,0.107441,VALID,18.9452,VALID,329,VALID,0,
2012-08-07, 00:34:04,VALID,919.382,VALID,0,VALID,96.1236,VALID,0,VALID,19.0037,VALID,329,VALID,0,
2012-08-07, 00:35:04,VALID,919.368,VALID,0,VALID,95.9941,VALID,0.107441,VALID,19.0637,VALID,329,VALID,0,
2012-08-07, 00:36:04,VALID,919.386,VALID,0,VALID,95.895,VALID,0,VALID,19.0413,VALID,329,VALID,0,
2012-08-07, 00:37:04,VALID,919.382,VALID,0,VALID,95.8111,VALID,0,VALID,19.0413,VALID,329,VALID,0,
2012-08-07, 00:38:04,VALID,919.403,VALID,0,VALID,95.6662,VALID,0,VALID,19.0427,VALID,329,VALID,0,
2012-08-07, 00:39:04,VALID,919.433,VALID,0,VALID,95.4909,VALID,0,VALID,19.0218,VALID,329,VALID,0,
2012-08-07, 00:40:04,VALID,919.485,VALID,0,VALID,95.3689,VALID,0,VALID,19.0413,VALID,329,VALID,0,
2012-08-07, 00:41:04,VALID,919.505,VALID,0,VALID,95.2393,VALID,0,VALID,19.0413,VALID,329,VALID,0,
2012-08-07, 00:42:04,VALID,919.536,VALID,0,VALID,95.1097,VALID,0,VALID,19.0608,VALID,329,VALID,0,
2012-08-07, 00:43:04,VALID,919.523,VALID,0,VALID,95.064,VALID,0.107441,VALID,19.0413,VALID,329,VALID,0,
2012-08-07, 00:44:04,VALID,919.561,VALID,0,VALID,95.064,VALID,0,VALID,19.0218,VALID,329,VALID,0,
2012-08-07, 00:45:04,VALID,919.58,VALID,0,VALID,95.1936,VALID,0,VALID,19.0037,VALID,160,VALID,0,
2012-08-07, 00:46:04,VALID,919.588,VALID,0,VALID,95.3156,VALID,0.107441,VALID,18.9633,VALID,153,VALID,0,
2012-08-07, 00:47:04,VALID,919.59,VALID,0,VALID,95.4833,VALID,0.107441,VALID,18.9048,VALID,153,VALID,0,
2012-08-07, 00:48:04,VALID,919.644,VALID,0,VALID,95.6053,VALID,0,VALID,18.8658,VALID,153,VALID,0,
2012-08-07, 00:49:04,VALID,919.658,VALID,0,VALID,95.712,VALID,0,VALID,18.8268,VALID,153,VALID,0,
2012-08-07, 00:50:04,VALID,919.67,VALID,0,VALID,95.834,VALID,0,VALID,18.8268,VALID,153,VALID,0,
2012-08-07, 00:51:04,VALID,919.672,VALID,0,VALID,95.9712,VALID,0,VALID,18.8073,VALID,153,VALID,0,
2012-08-07, 00:52:04,VALID,919.698,VALID,0,VALID,96.0627,VALID,0,VALID,18.7878,VALID,124,VALID,0,
2012-08-07, 00:53:04,VALID,919.683,VALID,0,VALID,96.1389,VALID,0,VALID,18.7683,VALID,138,VALID,0,
2012-08-07, 00:54:04,VALID,919.621,VALID,0,VALID,96.2304,VALID,0,VALID,18.7683,VALID,165,VALID,0,
2012-08-07, 00:55:04,VALID,919.584,VALID,0,VALID,96.3524,VALID,0,VALID,18.7683,VALID,150,VALID,0,
2012-08-07, 00:56:04,VALID,919.514,VALID,0,VALID,96.3981,VALID,0,VALID,18.7892,VALID,144,VALID,0,
2012-08-07, 00:57:04,VALID,919.475,VALID,0,VALID,96.4362,VALID,0.107441,VALID,18.7488,VALID,144,VALID,0,
2012-08-07, 00:58:04,VALID,919.428,VALID,0,VALID,96.5582,VALID,0,VALID,18.7683,VALID,144,VALID,0,
2012-08-07, 00:59:04,VALID,919.395,VALID,0,VALID,96.5963,VALID,0.107441,VALID,18.7683,VALID,144,VALID,0,
2012-08-07, 01:00:04,VALID,919.387,VALID,0,VALID,96.6039,VALID,0,VALID,18.7878,VALID,144,VALID,0,
2012-08-07, 01:01:04,VALID,919.362,VALID,0,VALID,96.6192,VALID,0,VALID,18.7878,VALID,144,VALID,0,
2012-08-07, 01:02:04,VALID,919.339,VALID,0,VALID,96.6573,VALID,0,VALID,18.7878,VALID,144,VALID,0,
2012-08-07, 01:03:04,VALID,919.326,VALID,0,VALID,96.6573,VALID,0,VALID,18.8087,VALID,144,VALID,0,
2012-08-07, 01:04:04,VALID,919.281,VALID,0,VALID,96.6649,VALID,0,VALID,18.7878,VALID,144,VALID,0,
2012-08-07, 01:05:04,VALID,919.254,VALID,0,VALID,96.5963,VALID,0,VALID,18.8073,VALID,144,VALID,0,
2012-08-07, 01:06:04,VALID,919.26,VALID,0,VALID,96.6039,VALID,0,VALID,18.8282,VALID,144,VALID,0,
2012-08-07, 01:07:04,VALID,919.215,VALID,0,VALID,96.6268,VALID,0,VALID,18.8073,VALID,144,VALID,0,
2012-08-07, 01:08:04,VALID,919.2,VALID,0,VALID,96.6115,VALID,0,VALID,18.8268,VALID,144,VALID,0,
2012-08-07, 01:09:04,VALID,919.184,VALID,0,VALID,96.5811,VALID,0.107441,VALID,18.7878,VALID,144,VALID,0,
2012-08-07, 01:10:04,VALID,919.181,VALID,0,VALID,96.5506,VALID,0,VALID,18.7892,VALID,144,VALID,0,
2012-08-07, 01:11:04,VALID,919.195,VALID,0,VALID,96.5353,VALID,0,VALID,18.7488,VALID,144,VALID,0,
2012-08-07, 01:12:04,VALID,919.16,VALID,0,VALID,96.5353,VALID,0,VALID,18.7488,VALID,144,VALID,0,
2012-08-07, 01:13:04,VALID,919.167,VALID,0,VALID,96.5353,VALID,0,VALID,18.7293,VALID,144,VALID,0,
2012-08-07, 01:14:04,VALID,919.14,VALID,0,VALID,96.5506,VALID,0,VALID,18.7293,VALID,144,VALID,0,
2012-08-07, 01:15:04,VALID,919.173,VALID,0,VALID,96.4667,VALID,0,VALID,18.7293,VALID,144,VALID,0,
2012-08-07, 01:16:04,VALID,919.14,VALID,0,VALID,96.4362,VALID,0,VALID,18.7488,VALID,43,VALID,0,
2012-08-07, 01:17:04,VALID,919.173,VALID,0,VALID,96.3829,VALID,0,VALID,18.7697,VALID,42,VALID,0,
2012-08-07, 01:18:04,VALID,919.183,VALID,0,VALID,96.3066,VALID,0,VALID,18.7683,VALID,42,VALID,0,
2012-08-07, 01:19:04,VALID,919.213,VALID,0,VALID,96.2228,VALID,0.107441,VALID,18.8073,VALID,42,VALID,0,
2012-08-07, 01:20:04,VALID,919.222,VALID,0,VALID,96.0932,VALID,0,VALID,18.8463,VALID,82,VALID,0,
2012-08-07, 01:21:04,VALID,919.246,VALID,0,VALID,95.9712,VALID,0,VALID,18.9257,VALID,110,VALID,0,
2012-08-07, 01:22:04,VALID,919.284,VALID,0,VALID,95.834,VALID,0,VALID,18.8853,VALID,120,VALID,0,
2012-08-07, 01:23:04,VALID,919.277,VALID,0,VALID,95.7425,VALID,0,VALID,18.9257,VALID,137,VALID,0,
2012-08-07, 01:24:04,VALID,919.306,VALID,0,VALID,95.7349,VALID,0.107441,VALID,18.9048,VALID,131,VALID,0,
2012-08-07, 01:25:04,VALID,919.297,VALID,0,VALID,95.712,VALID,0,VALID,18.8853,VALID,127,VALID,0,
2012-08-07, 01:26:04,VALID,919.276,VALID,0,VALID,95.773,VALID,0,VALID,18.8463,VALID,128,VALID,0,
2012-08-07, 01:27:04,VALID,919.282,VALID,0,VALID,95.8416,VALID,0,VALID,18.8268,VALID,118,VALID,0,
2012-08-07, 01:28:04,VALID,919.282,VALID,0,VALID,95.9712,VALID,0,VALID,18.8282,VALID,138,VALID,0,
2012-08-07, 01:29:04,VALID,919.272,VALID,0,VALID,96.0322,VALID,0,VALID,18.8087,VALID,152,VALID,0,
2012-08-07, 01:30:04,VALID,919.254,VALID,0,VALID,96.1389,VALID,0,VALID,18.8087,VALID,152,VALID,0,
2012-08-07, 01:31:04,VALID,919.237,VALID,0,VALID,96.1999,VALID,0,VALID,18.7683,VALID,152,VALID,0,
2012-08-07, 01:32:04,VALID,919.22,VALID,0,VALID,96.2837,VALID,0,VALID,18.7488,VALID,152,VALID,0,
2012-08-07, 01:33:04,VALID,919.187,VALID,0,VALID,96.3524,VALID,0,VALID,18.7293,VALID,152,VALID,0,
2012-08-07, 01:34:04,VALID,919.148,VALID,0,VALID,96.421,VALID,0.107441,VALID,18.7503,VALID,152,VALID,0,
2012-08-07, 01:35:04,VALID,919.128,VALID,0,VALID,96.4972,VALID,0,VALID,18.7488,VALID,152,VALID,0,
2012-08-07, 01:36:04,VALID,919.121,VALID,0,VALID,96.4743,VALID,0,VALID,18.7697,VALID,152,VALID,0,
2012-08-07, 01:37:04,VALID,919.107,VALID,0,VALID,96.4896,VALID,0,VALID,18.7503,VALID,152,VALID,0,
2012-08-07, 01:38:04,VALID,919.087,VALID,0,VALID,96.5353,VALID,0,VALID,18.7293,VALID,152,VALID,0,
2012-08-07, 01:39:04,VALID,919.067,VALID,0,VALID,96.5277,VALID,0,VALID,18.7503,VALID,152,VALID,0,
2012-08-07, 01:40:04,VALID,919.042,VALID,0,VALID,96.5353,VALID,0,VALID,18.7503,VALID,152,VALID,0,
2012-08-07, 01:41:04,VALID,919.044,VALID,0,VALID,96.5582,VALID,0,VALID,18.7697,VALID,152,VALID,0,
2012-08-07, 01:42:04,VALID,919.031,VALID,0,VALID,96.5506,VALID,0,VALID,18.7488,VALID,152,VALID,0,
2012-08-07, 01:43:04,VALID,919.022,VALID,0,VALID,96.5048,VALID,0,VALID,18.7697,VALID,152,VALID,0,
2012-08-07, 01:44:04,VALID,918.939,VALID,0,VALID,96.5353,VALID,0,VALID,18.7683,VALID,152,VALID,0,
2012-08-07, 01:45:04,VALID,918.904,VALID,0,VALID,96.4819,VALID,0,VALID,18.8073,VALID,152,VALID,0,
2012-08-07, 01:46:04,VALID,918.832,VALID,0,VALID,96.421,VALID,0,VALID,18.8087,VALID,152,VALID,0,
2012-08-07, 01:47:04,VALID,918.768,VALID,0,VALID,96.4896,VALID,0,VALID,18.8073,VALID,152,VALID,0,
2012-08-07, 01:48:04,VALID,918.698,VALID,0,VALID,96.3905,VALID,0,VALID,18.8073,VALID,152,VALID,0,
2012-08-07, 01:49:04,VALID,918.678,VALID,0,VALID,96.3752,VALID,0,VALID,18.8282,VALID,152,VALID,0,
2012-08-07, 01:50:04,VALID,918.659,VALID,0,VALID,96.3447,VALID,0,VALID,18.8282,VALID,152,VALID,0,
2012-08-07, 01:51:04,VALID,918.635,VALID,0,VALID,96.3219,VALID,0,VALID,18.8282,VALID,152,VALID,0,
2012-08-07, 01:52:04,VALID,918.667,VALID,0,VALID,96.3219,VALID,0,VALID,18.8477,VALID,152,VALID,0,
2012-08-07, 01:53:04,VALID,918.68,VALID,0,VALID,96.299,VALID,0,VALID,18.8477,VALID,152,VALID,0,
2012-08-07, 01:54:04,VALID,918.669,VALID,0,VALID,96.2761,VALID,0,VALID,18.8268,VALID,152,VALID,0,
2012-08-07, 01:55:04,VALID,918.669,VALID,0,VALID,96.238,VALID,0,VALID,18.8282,VALID,152,VALID,0,
2012-08-07, 01:56:04,VALID,918.668,VALID,0,VALID,96.1999,VALID,0,VALID,18.8087,VALID,152,VALID,0,
2012-08-07, 01:57:04,VALID,918.662,VALID,0,VALID,96.238,VALID,0,VALID,18.7892,VALID,152,VALID,0,
2012-08-07, 01:58:04,VALID,918.671,VALID,0,VALID,96.1846,VALID,0,VALID,18.7892,VALID,152,VALID,0,
2012-08-07, 01:59:04,VALID,918.658,VALID,0,VALID,96.1389,VALID,0.107441,VALID,18.7697,VALID,152,VALID,0,
2012-08-07, 02:00:04,VALID,918.654,VALID,0,VALID,96.1313,VALID,0,VALID,18.7308,VALID,152,VALID,0,
2012-08-07, 02:01:04,VALID,918.647,VALID,0,VALID,96.1846,VALID,0,VALID,18.7503,VALID,152,VALID,0,
2012-08-07, 02:02:04,VALID,918.634,VALID,0,VALID,96.2304,VALID,0,VALID,18.7683,VALID,152,VALID,0,
2012-08-07, 02:03:04,VALID,918.598,VALID,0,VALID,96.1923,VALID,0,VALID,18.7488,VALID,152,VALID,0,
2012-08-07, 02:04:04,VALID,918.595,VALID,0,VALID,96.1846,VALID,0,VALID,18.7892,VALID,152,VALID,0,
2012-08-07, 02:05:04,VALID,918.598,VALID,0,VALID,96.177,VALID,0,VALID,18.7697,VALID,152,VALID,0,
2012-08-07, 02:06:04,VALID,918.595,VALID,0,VALID,96.2151,VALID,0,VALID,18.7697,VALID,152,VALID,0,
2012-08-07, 02:07:04,VALID,918.592,VALID,0,VALID,96.2304,VALID,0,VALID,18.7697,VALID,152,VALID,0,
2012-08-07, 02:08:04,VALID,918.592,VALID,0,VALID,96.177,VALID,0,VALID,18.7503,VALID,152,VALID,0,
2012-08-07, 02:09:04,VALID,918.594,VALID,0,VALID,96.1618,VALID,0,VALID,18.7308,VALID,152,VALID,0,
2012-08-07, 02:10:04,VALID,918.595,VALID,0,VALID,96.1389,VALID,0,VALID,18.6918,VALID,152,VALID,0,
2012-08-07, 02:11:04,VALID,918.58,VALID,0,VALID,96.116,VALID,0,VALID,18.6513,VALID,152,VALID,0,
2012-08-07, 02:12:04,VALID,918.618,VALID,0,VALID,95.9941,VALID,0,VALID,18.6138,VALID,152,VALID,0,
2012-08-07, 02:13:04,VALID,918.569,VALID,0,VALID,96.0169,VALID,0,VALID,18.5553,VALID,152,VALID,0,
2012-08-07, 02:14:04,VALID,918.589,VALID,0,VALID,96.0322,VALID,0,VALID,18.5358,VALID,152,VALID,0,
2012-08-07, 02:15:04,VALID,918.558,VALID,0,VALID,96.1236,VALID,0,VALID,18.5372,VALID,100,VALID,0,
2012-08-07, 02:16:04,VALID,918.563,VALID,0,VALID,96.1084,VALID,0,VALID,18.5358,VALID,99,VALID,0,
2012-08-07, 02:17:04,VALID,918.593,VALID,0,VALID,96.0474,VALID,0,VALID,18.5553,VALID,99,VALID,0,
2012-08-07, 02:18:05,VALID,918.575,VALID,0,VALID,96.0017,VALID,0,VALID,18.5748,VALID,99,VALID,0,
2012-08-07, 02:19:05,VALID,918.586,VALID,0,VALID,95.9788,VALID,0,VALID,18.5929,VALID,121,VALID,0,
2012-08-07, 02:20:05,VALID,918.562,VALID,0,VALID,95.9712,VALID,0,VALID,18.6333,VALID,121,VALID,0,
2012-08-07, 02:21:05,VALID,918.602,VALID,0,VALID,95.9254,VALID,0,VALID,18.6333,VALID,121,VALID,0,
2012-08-07, 02:22:05,VALID,918.62,VALID,0,VALID,95.895,VALID,0,VALID,18.6124,VALID,121,VALID,0,
2012-08-07, 02:23:05,VALID,918.616,VALID,0,VALID,95.9178,VALID,0,VALID,18.6124,VALID,121,VALID,0,
2012-08-07, 02:24:05,VALID,918.615,VALID,0,VALID,95.9331,VALID,0,VALID,18.6124,VALID,141,VALID,0,
2012-08-07, 02:25:05,VALID,918.617,VALID,0,VALID,95.9941,VALID,0,VALID,18.6124,VALID,142,VALID,0,
2012-08-07, 02:26:05,VALID,918.635,VALID,0,VALID,96.0627,VALID,0,VALID,18.5929,VALID,141,VALID,0,
2012-08-07, 02:27:05,VALID,918.62,VALID,0,VALID,96.1313,VALID,0,VALID,18.6138,VALID,141,VALID,0,
2012-08-07, 02:28:05,VALID,918.581,VALID,0,VALID,96.1923,VALID,0,VALID,18.6138,VALID,142,VALID,0,
2012-08-07, 02:29:05,VALID,918.564,VALID,0,VALID,96.2456,VALID,0,VALID,18.5734,VALID,141,VALID,0,
2012-08-07, 02:30:05,VALID,918.563,VALID,0,VALID,96.2837,VALID,0,VALID,18.5748,VALID,142,VALID,0,
2012-08-07, 02:31:05,VALID,918.541,VALID,0,VALID,96.3524,VALID,0,VALID,18.5748,VALID,141,VALID,0,
2012-08-07, 02:32:05,VALID,918.563,VALID,0,VALID,96.3752,VALID,0,VALID,18.5539,VALID,141,VALID,0,
2012-08-07, 02:33:05,VALID,918.529,VALID,0,VALID,96.4133,VALID,0,VALID,18.5748,VALID,142,VALID,0,
2012-08-07, 02:34:05,VALID,918.522,VALID,0,VALID,96.4819,VALID,0,VALID,18.5943,VALID,142,VALID,0,
2012-08-07, 02:35:05,VALID,918.509,VALID,0,VALID,96.4896,VALID,0,VALID,18.5748,VALID,141,VALID,0,
2012-08-07, 02:36:05,VALID,918.504,VALID,0,VALID,96.5201,VALID,0,VALID,18.5943,VALID,142,VALID,0,
2012-08-07, 02:37:05,VALID,918.465,VALID,0,VALID,96.5506,VALID,0,VALID,18.5943,VALID,141,VALID,0,
2012-08-07, 02:38:05,VALID,918.517,VALID,0,VALID,96.5887,VALID,0,VALID,18.6138,VALID,142,VALID,0,
2012-08-07, 02:39:05,VALID,918.457,VALID,0,VALID,96.5811,VALID,0,VALID,18.6333,VALID,141,VALID,0,
2012-08-07, 02:40:05,VALID,918.442,VALID,0,VALID,96.5658,VALID,0,VALID,18.5943,VALID,141,VALID,0,
2012-08-07, 02:41:05,VALID,918.384,VALID,0,VALID,96.5429,VALID,0,VALID,18.5748,VALID,141,VALID,0,
2012-08-07, 02:42:05,VALID,918.367,VALID,0,VALID,96.5429,VALID,0,VALID,18.5553,VALID,141,VALID,0,
2012-08-07, 02:43:05,VALID,918.366,VALID,0,VALID,96.5124,VALID,0,VALID,18.5553,VALID,141,VALID,0,
2012-08-07, 02:44:05,VALID,918.378,VALID,0,VALID,96.4591,VALID,0,VALID,18.5163,VALID,142,VALID,0,
2012-08-07, 02:45:05,VALID,918.342,VALID,0,VALID,96.3905,VALID,0,VALID,18.4369,VALID,142,VALID,0,
2012-08-07, 02:46:05,VALID,918.358,VALID,0,VALID,96.4743,VALID,0,VALID,18.4383,VALID,142,VALID,0,
2012-08-07, 02:47:05,VALID,918.336,VALID,0,VALID,96.5124,VALID,0,VALID,18.4383,VALID,141,VALID,0,
2012-08-07, 02:48:05,VALID,918.329,VALID,0,VALID,96.6268,VALID,0,VALID,18.4578,VALID,141,VALID,0,
2012-08-07, 02:49:05,VALID,918.332,VALID,0,VALID,96.6649,VALID,0,VALID,18.4968,VALID,141,VALID,0,
2012-08-07, 02:50:05,VALID,918.313,VALID,0,VALID,96.6954,VALID,0,VALID,18.5163,VALID,142,VALID,0,
2012-08-07, 02:51:05,VALID,918.332,VALID,0,VALID,96.6649,VALID,0,VALID,18.5358,VALID,141,VALID,0,
2012-08-07, 02:52:05,VALID,918.31,VALID,0,VALID,96.6573,VALID,0,VALID,18.5553,VALID,142,VALID,0,
2012-08-07, 02:53:05,VALID,918.297,VALID,0,VALID,96.6497,VALID,0,VALID,18.5748,VALID,142,VALID,0,
2012-08-07, 02:54:05,VALID,918.288,VALID,0,VALID,96.6344,VALID,0,VALID,18.5748,VALID,141,VALID,0,
2012-08-07, 02:55:05,VALID,918.27,VALID,0,VALID,96.5887,VALID,0,VALID,18.5943,VALID,141,VALID,0,
2012-08-07, 02:56:05,VALID,918.283,VALID,0,VALID,96.5811,VALID,0,VALID,18.5748,VALID,141,VALID,0,
2012-08-07, 02:57:05,VALID,918.28,VALID,0,VALID,96.5811,VALID,0,VALID,18.5748,VALID,141,VALID,0,
2012-08-07, 02:58:05,VALID,918.296,VALID,0,VALID,96.5429,VALID,0,VALID,18.5748,VALID,142,VALID,0,
2012-08-07, 02:59:05,VALID,918.293,VALID,0,VALID,96.4743,VALID,0,VALID,18.5358,VALID,141,VALID,0,
2012-08-07, 03:00:05,VALID,918.289,VALID,0,VALID,96.421,VALID,0,VALID,18.5177,VALID,142,VALID,0,
2012-08-07, 03:01:05,VALID,918.274,VALID,0,VALID,96.4057,VALID,0,VALID,18.4968,VALID,141,VALID,0,
2012-08-07, 03:02:05,VALID,918.284,VALID,0,VALID,96.3905,VALID,0,VALID,18.4773,VALID,141,VALID,0,
2012-08-07, 03:03:05,VALID,918.282,VALID,0,VALID,96.3981,VALID,0,VALID,18.4578,VALID,142,VALID,0,
2012-08-07, 03:04:05,VALID,918.287,VALID,0,VALID,96.3905,VALID,0,VALID,18.4383,VALID,141,VALID,0,
2012-08-07, 03:05:05,VALID,918.298,VALID,0,VALID,96.4057,VALID,0,VALID,18.4188,VALID,142,VALID,0,
2012-08-07, 03:06:05,VALID,918.264,VALID,0,VALID,96.4438,VALID,0,VALID,18.4188,VALID,142,VALID,0,
2012-08-07, 03:07:05,VALID,918.255,VALID,0,VALID,96.4743,VALID,0,VALID,18.4383,VALID,141,VALID,0,
2012-08-07, 03:08:05,VALID,918.221,VALID,0,VALID,96.4896,VALID,0,VALID,18.4383,VALID,141,VALID,0,
2012-08-07, 03:09:05,VALID,918.195,VALID,0,VALID,96.5048,VALID,0,VALID,18.4383,VALID,141,VALID,0,
2012-08-07, 03:10:05,VALID,918.203,VALID,0,VALID,96.5582,VALID,0,VALID,18.4578,VALID,141,VALID,0,
2012-08-07, 03:11:05,VALID,918.175,VALID,0,VALID,96.6039,VALID,0,VALID,18.4773,VALID,141,VALID,0,
2012-08-07, 03:12:05,VALID,918.195,VALID,0,VALID,96.5963,VALID,0,VALID,18.4773,VALID,141,VALID,0,
2012-08-07, 03:13:05,VALID,918.189,VALID,0,VALID,96.5734,VALID,0.107441,VALID,18.4773,VALID,141,VALID,0,
2012-08-07, 03:14:05,VALID,918.17,VALID,0,VALID,96.6115,VALID,0,VALID,18.4773,VALID,141,VALID,0,
2012-08-07, 03:15:05,VALID,918.084,VALID,0,VALID,96.6268,VALID,0,VALID,18.4773,VALID,141,VALID,0,
2012-08-07, 03:16:05,VALID,918.092,VALID,0,VALID,96.6649,VALID,0,VALID,18.5163,VALID,141,VALID,0,
2012-08-07, 03:17:05,VALID,918.048,VALID,0,VALID,96.6802,VALID,0,VALID,18.5163,VALID,141,VALID,0,
2012-08-07, 03:18:05,VALID,918.007,VALID,0,VALID,96.6725,VALID,0,VALID,18.5163,VALID,142,VALID,0,
2012-08-07, 03:19:05,VALID,917.964,VALID,0,VALID,96.6649,VALID,0,VALID,18.5553,VALID,141,VALID,0,
2012-08-07, 03:20:05,VALID,917.942,VALID,0,VALID,96.6954,VALID,0,VALID,18.6333,VALID,141,VALID,0,
2012-08-07, 03:21:05,VALID,917.921,VALID,0,VALID,96.642,VALID,0,VALID,18.6138,VALID,141,VALID,0,
2012-08-07, 03:22:05,VALID,917.908,VALID,0,VALID,96.5734,VALID,0,VALID,18.6333,VALID,141,VALID,0,
2012-08-07, 03:23:05,VALID,917.898,VALID,0,VALID,96.5201,VALID,0,VALID,18.6333,VALID,142,VALID,0,
2012-08-07, 03:24:05,VALID,917.843,VALID,0,VALID,96.4362,VALID,0,VALID,18.6528,VALID,142,VALID,0,
2012-08-07, 03:25:05,VALID,917.898,VALID,0,VALID,96.3142,VALID,0,VALID,18.6138,VALID,141,VALID,0,
2012-08-07, 03:26:05,VALID,917.863,VALID,0,VALID,96.2914,VALID,0,VALID,18.6347,VALID,141,VALID,0,
2012-08-07, 03:27:05,VALID,917.882,VALID,0,VALID,96.2837,VALID,0,VALID,18.6138,VALID,142,VALID,0,
2012-08-07, 03:28:05,VALID,917.867,VALID,0,VALID,96.1999,VALID,0,VALID,18.5943,VALID,141,VALID,0,
2012-08-07, 03:29:05,VALID,917.882,VALID,0,VALID,96.2151,VALID,0,VALID,18.5748,VALID,141,VALID,0,
2012-08-07, 03:30:05,VALID,917.865,VALID,0,VALID,96.1999,VALID,0,VALID,18.5943,VALID,141,VALID,0,
2012-08-07, 03:31:05,VALID,917.853,VALID,0,VALID,96.1846,VALID,0,VALID,18.6347,VALID,142,VALID,0,
2012-08-07, 03:32:05,VALID,917.8,VALID,0,VALID,96.0703,VALID,0,VALID,18.5553,VALID,141,VALID,0,
2012-08-07, 03:33:05,VALID,917.798,VALID,0,VALID,95.9864,VALID,0,VALID,18.5163,VALID,108,VALID,0,
2012-08-07, 03:34:05,VALID,917.82,VALID,0,VALID,95.9636,VALID,0,VALID,18.4773,VALID,100,VALID,0,
2012-08-07, 03:35:05,VALID,917.784,VALID,0,VALID,96.0322,VALID,0,VALID,18.4578,VALID,100,VALID,0,
2012-08-07, 03:36:05,VALID,917.8,VALID,0,VALID,96.0245,VALID,0,VALID,18.4369,VALID,101,VALID,0,
2012-08-07, 03:37:05,VALID,917.822,VALID,0,VALID,96.055,VALID,0,VALID,18.4578,VALID,104,VALID,0,
2012-08-07, 03:38:05,VALID,917.852,VALID,0,VALID,96.0779,VALID,0,VALID,18.4383,VALID,130,VALID,0,
2012-08-07, 03:39:05,VALID,917.856,VALID,0,VALID,96.1008,VALID,0,VALID,18.4383,VALID,130,VALID,0,
2012-08-07, 03:40:05,VALID,917.84,VALID,0,VALID,96.1465,VALID,0,VALID,18.4174,VALID,130,VALID,0,
2012-08-07, 03:41:05,VALID,917.829,VALID,0,VALID,96.1694,VALID,0,VALID,18.4188,VALID,130,VALID,0,
2012-08-07, 03:42:05,VALID,917.806,VALID,0,VALID,96.1694,VALID,0,VALID,18.3993,VALID,130,VALID,0,
2012-08-07, 03:43:05,VALID,917.813,VALID,0,VALID,96.2075,VALID,0,VALID,18.3993,VALID,130,VALID,0,
2012-08-07, 03:44:05,VALID,917.788,VALID,0,VALID,96.2837,VALID,0,VALID,18.3993,VALID,130,VALID,0,
2012-08-07, 03:45:05,VALID,917.807,VALID,0,VALID,96.2837,VALID,0,VALID,18.3589,VALID,130,VALID,0,
2012-08-07, 03:46:05,VALID,917.791,VALID,0,VALID,96.3447,VALID,0,VALID,18.3798,VALID,130,VALID,0,
2012-08-07, 03:47:05,VALID,917.793,VALID,0,VALID,96.4057,VALID,0,VALID,18.3798,VALID,130,VALID,0,
2012-08-07, 03:48:05,VALID,917.772,VALID,0,VALID,96.4286,VALID,0,VALID,18.3993,VALID,130,VALID,0,
2012-08-07, 03:49:05,VALID,917.746,VALID,0,VALID,96.4515,VALID,0,VALID,18.3993,VALID,130,VALID,0,
2012-08-07, 03:50:05,VALID,917.758,VALID,0,VALID,96.4438,VALID,0.107441,VALID,18.3798,VALID,130,VALID,0,
2012-08-07, 03:51:05,VALID,917.762,VALID,0,VALID,96.4133,VALID,0,VALID,18.3603,VALID,130,VALID,0,
2012-08-07, 03:52:05,VALID,917.744,VALID,0,VALID,96.4362,VALID,0,VALID,18.3408,VALID,130,VALID,0,
2012-08-07, 03:53:05,VALID,917.733,VALID,0,VALID,96.4819,VALID,0,VALID,18.3408,VALID,130,VALID,0,
2012-08-07, 03:54:05,VALID,917.775,VALID,0,VALID,96.5201,VALID,0,VALID,18.3408,VALID,156,VALID,0,
2012-08-07, 03:55:05,VALID,917.767,VALID,0,VALID,96.5963,VALID,0,VALID,18.3408,VALID,165,VALID,0,
2012-08-07, 03:56:05,VALID,917.752,VALID,0,VALID,96.6344,VALID,0,VALID,18.3603,VALID,165,VALID,0,
2012-08-07, 03:57:05,VALID,917.794,VALID,0,VALID,96.6878,VALID,0,VALID,18.3798,VALID,165,VALID,0,
2012-08-07, 03:58:05,VALID,917.802,VALID,0,VALID,96.6878,VALID,0,VALID,18.3798,VALID,165,VALID,0,